Terug naar catalogus

NOAA 14

ActiefWeerSSO
NORAD 23455·PAYLOAD·🇺🇸 United States

Gelanceerd Dec 30, 1994 vanaf Vandenberg Space Force Base

Loading…

Volgende Passages (komende 24 uur)

TLE

VersSource: Space-Track

Epoch: Sep 14, 2026, 14:17 UTC

1 23455U 94089A   26257.59558768  .00000020  00000-0  31908-4 0  9991
2 23455  98.5242 223.0954 0009302 180.2557 179.8614 14.14685015635845

Volg NOAA 14 in realtime met AllMySat

Download on the App Store